{"data":{"norad_id":63005,"epoch":"2026-09-21T21:08:06.457056Z","epoch_age_seconds":45408,"freshness":"FRESH","line1":"1 63005U 25032A   26264.88063029  .00150061  00000+0  11490-2 0  9991","line2":"2 63005  43.0008  92.4023 0002991 274.3129  85.7397 15.70899415 93088","mean_motion":15.70899415,"eccentricity":0.0002991,"inclination_deg":43.0008,"raan_deg":92.4023,"arg_perigee_deg":274.3129,"mean_anomaly_deg":85.7397,"bstar":0.001149,"rev_number":9308,"period_min":91.667231284824,"perigee_km":354.31097007304,"apogee_km":358.33952538963,"semimajor_km":6734.4622477313,"source":"CELESTRAK","updated_at":"2026-09-22T09:00:49.720874Z"}}